RH
102 102 99 97 97 99 100 100 100 98 95 94 94 95 97 98 99 96 92 88 86 83 78 74 75 77 78 76 74 73 74 74 73 71 68 65 60 56 54 53 52 51 51 49 49 48 48 48 49 50 51 52
94 95 95 93 93 93 92 92 92 93 93 91 91 90 89 86 81 75 70 67 65 64 63 63 64 66 68 67 66 65 65 64 64 63 61 59 56 54 51 49 47 47 47 47 47 46 46 46 45 45 45 45
90 88 86 84 82 80 77 75 74 74 74 72 71 70 69 66 64 62 62 62 64 66 68 72 73 74 75 75 74 72 70 69 69 68 68 68 66 62 57 51 48 45 44 43 43 43 44 44 44 43 42 43
95 94 92 92 91 88 82 75 71 69 69 69 70 71 72 72 73 74 75 76 77 79 83 87 89 90 90 89 88 86 83 81 79 78 79 79 77 73 68 63 60 57 54 51 49 48 47 46 46 46 44 44
100 100 99 98 97 95 91 88 86 86 86 85 85 84 81 79 79 77 76 77 78 81 85 91 96 98 98 97 97 95 93 89 86 84 81 79 77 74 72 72 72 72 69 66 63 61 58 55 53 52 50 48
95 96 97 95 93 93 91 91 91 89 88 86 82 79 76 73 72 71 71 72 74 78 84 91 97 100 100 100 100 98 95 91 87 82 77 73 69 69 70 74 77 80 81 81 81 79 74 69 63 59 57 54
85 85 86 85 86 87 86 86 85 83 82 80 76 73 72 71 70 69 69 71 75 81 88 93 97 99 99 98 97 93 89 84 79 74 70 67 66 66 68 71 75 78 82 86 89 89 87 84 79 73 68 63
78 77 77 77 78 80 81 83 83 81 79 76 75 73 71 69 67 67 67 71 77 85 92 96 97 97 95 92 88 83 78 74 71 68 66 65 65 65 66 68 69 71 72 74 75 77 79 80 81 80 77 73
70 68 67 68 70 70 69 70 72 75 76 75 74 72 70 69 68 69 69 71 75 82 90 95 97 96 92 87 81 76 72 70 70 70 69 68 67 66 66 66 66 66 67 66 65 65 65 67 69 71 72 72
68 65 65 65 62 56 53 53 55 61 67 68 67 67 67 68 71 73 73 73 74 77 83 89 92 91 87 82 78 73 70 69 69 70 70 70 69 68 67 66 64 63 64 63 61 59 58 57 57 58 60 62
76 76 72 61 48 47 54 59 57 55 60 62 61 61 62 65 69 71 72 72 73 74 76 78 80 79 76 72 69 67 65 64 63 63 63 63 64 64 63 62 60 59 59 59 58 56 54 52 51 50 50 51
82 76 63 47 43 55 67 72 69 62 59 58 57 57 59 63 66 69 71 72 72 72 71 69 67 65 63 61 61 60 60 60 59 58 58 57 57 57 57 56 55 55 54 53 53 52 50 48 47 45 44 43
67 55 48 45 52 63 67 69 70 66 61 57 56 56 59 62 65 69 71 73 74 74 73 70 67 64 62 60 58 56 55 54 54 54 54 53 53 52 51 51 51 50 48 47 47 46 45 42 40 39 37 35
48 48 53 57 60 60 57 57 57 57 56 54 54 54 56 59 62 65 67 68 69 69 68 66 63 59 55 51 47 43 41 40 39 39 38 37 37 36 35 34 34 33 32 32 31 31 29 28 26 25 23 22
55 57 58 54 48 43 39 38 39 42 43 44 45 47 48 49 50 50 50 49 48 47 45 43 41 39 36 33 31 29 27 27 26 26 25 24 24 22 22 20 19 19 18 17 16 16 15 15 14 14 13 13
53 47 40 34 31 29 29 29 31 33 33 34 35 35 36 35 34 33 32 32 32 31 31 30 30 29 28 27 27 27 27 27 27 27 26 25 24 23 23 21 20 19 18 18 16 15 14 14 13 13 13 12
35 31 29 28 28 28 28 29 29 29 29 30 29 29 30 29 30 30 30 31 31 32 33 33 34 34 36 37 38 39 39 37 35 34 32 31 30 29 28 27 26 24 22 21 18 17 15 13 12 12 12 11
30 29 30 30 31 31 31 31 31 31 30 30 31 32 33 34 36 36 37 39 40 41 43 45 46 48 49 49 48 46 44 42 38 35 33 31 28 26 24 23 22 20 19 17 15 14 12 11 10 9 9 9
32 33 34 34 34 35 35 36 36 37 39 42 44 47 49 51 52 53 54 54 55 54 54 54 54 53 51 47 43 40 37 34 31 28 26 24 22 21 19 18 18 17 16 15 14 13 12 11 10 9 9 8
37 38 40 41 43 46 49 52 56 59 63 66 68 69 70 69 69 68 66 63 60 58 55 51 48 44 40 36 33 30 28 27 26 25 24 23 22 21 20 18 18 17 16 15 14 13 12 11 9 9 8 8
50 54 57 61 64 68 72 74 76 77 78 78 77 75 72 69 66 63 61 58 55 51 47 42 38 35 32 31 29 28 28 27 27 26 24 23 20 19 18 17 16 14 13 12 11 11 9 9 8 7 6 6
69 71 73 74 75 76 76 76 75 74 72 71 69 67 64 61 59 57 55 52 49 45 41 37 34 33 32 32 31 31 29 27 25 23 21 19 17 15 14 13 12 11 10 9 9 8 7 7 6 6 5 5
74 74 73 73 73 72 71 71 69 68 66 65 64 62 59 56 54 52 49 47 44 41 39 38 37 36 35 34 33 30 27 24 21 19 16 15 13 12 10 9 9 8 8 7 7 6 6 6 5 5 4 4
74 73 72 71 71 69 67 65 63 61 59 57 55 53 51 49 48 47 46 46 46 45 44 43 41 40 37 34 31 27 24 20 17 15 13 12 11 10 8 7 7 6 6 6 6 6 5 5 4 4 4 3
73 71 68 68 67 63 60 58 56 54 52 51 50 49 49 49 50 50 51 51 50 49 48 45 42 39 35 30 27 23 20 17 15 13 12 10 9 8 7 6 6 5 5 5 4 5 4 4 4 4 4 3
68 66 64 63 62 59 57 56 55 54 53 53 54 53 54 55 55 54 54 53 51 49 45 42 37 33 29 26 23 21 18 16 14 12 10 9 8 7 6 6 5 5 4 4 4 4 4 4 4 4 4 4
63 61 61 62 61 60 59 57 56 57 56 56 57 58 57 57 55 54 52 50 47 43 39 35 32 28 25 22 20 18 16 14 12 10 9 8 7 6 6 5 5 5 4 4 4 4 4 4 4 4 4 4
64 62 63 64 63 62 61 59 58 60 60 58 58 59 57 55 53 51 48 44 40 37 34 30 26 23 20 18 16 14 13 12 10 9 8 7 7 6 6 6 5 5 5 4 4 4 4 4 4 5 5 4
66 65 64 64 64 63 63 62 63 64 62 58 59 60 58 54 51 47 44 40 35 32 27 23 20 18 16 15 13 12 11 11 10 9 8 7 7 6 6 6 5 5 5 5 5 4 4 4 4 5 5 5
66 65 64 63 64 65 66 68 70 68 63 61 60 60 58 53 48 44 40 35 29 25 21 19 17 15 14 13 12 12 11 10 10 9 8 7 7 7 6 6 6 6 6 5 5 5 4 5 4 4 5 5
64 63 63 63 64 67 70 73 74 70 65 63 60 58 54 49 43 37 33 28 24 21 19 17 16 15 14 14 13 12 11 10 9 8 7 7 7 7 7 7 7 7 6 6 5 5 5 5 5 4 5 5
Wind_Speed
95 96 96 96 96 96 97 97 97 98 98 98 98 98 98 99 99 100 101 101 102 103 104 105 105 105 106 106 106 105 105 104 104 104 104 104 105 106 106 106 106 105 105 105 105 104 104 104 104 105 105 105
99 100 100 101 101 101 102 102 102 102 102 102 103 103 104 105 106 107 108 108 108 109 109 109 109 109 109 109 109 109 108 108 108 109 109 109 110 110 109 109 108 108 108 107 107 107 107 106 106 106 106 107
101 102 102 103 104 105 105 106 106 107 107 107 108 108 109 109 110 110 110 110 111 111 112 112 112 112 112 112 112 112 111 111 111 112 112 112 112 111 111 110 109 108 107 107 107 107 107 107 107 108 107 107
101 102 103 103 104 105 106 107 107 108 109 109 109 109 110 110 110 111 112 112 113 114 114 114 114 114 114 114 113 113 114 114 114 114 114 113 113 112 111 110 109 109 108 108 108 108 107 107 107 108 108 108
104 104 105 106 106 107 108 109 109 110 110 110 110 111 111 112 113 114 114 114 115 115 115 115 115 115 114 114 114 114 115 115 115 115 115 114 113 112 111 111 110 110 109 109 109 109 109 109 109 109 110 110
110 110 110 111 111 112 112 112 113 113 113 113 113 113 114 115 115 115 115 115 115 115 114 114 114 114 114 114 114 115 115 116 116 115 115 114 113 113 112 111 111 111 111 111 111 111 111 111 111 111 111 111
113 113 113 114 114 114 114 115 115 115 115 115 115 115 115 115 115 115 115 114 114 113 113 113 113 113 114 114 114 115 115 116 115 115 114 114 113 113 113 112 112 112 112 112 112 112 113 113 113 113 113 113
114 114 114 114 113 113 113 114 115 115 115 115 115 114 114 114 114 113 113 112 112 112 112 112 112 112 113 113 114 114 114 115 114 114 114 114 114 114 114 114 114 114 114 114 114 114 114 115 115 115 115 115
111 111 112 112 112 112 113 114 114 114 114 114 113 113 112 112 111 111 111 111 111 111 112 112 112 112 113 113 114 114 114 114 114 114 114 114 114 114 114 115 115 115 116 116 116 116 116 116 116 116 116 117
110 110 111 112 113 113 113 114 114 114 114 113 113 112 112 111 111 111 111 111 111 112 112 113 113 114 114 114 115 115 115 116 116 116 116 115 115 116 116 117 117 117 118 118 118 118 118 118 118 118 118 118
112 113 114 114 114 113 112 112 112 113 113 113 113 113 113 112 112 112 112 112 112 113 113 114 114 115 115 116 116 117 117 118 118 119 119 119 119 119 119 120 120 120 120 121 121 121 121 121 121 121 120 120
115 115 115 113 112 111 111 111 111 112 113 114 114 115 115 115 115 115 115 115 115 115 116 116 117 117 118 119 119 120 121 121 122 122 122 123 123 123 124 124 124 124 124 124 124 125 125 125 125 125 124 124
115 114 112 111 111 112 113 113 113 113 114 115 116 117 117 118 118 118 118 118 118 118 119 119 120 121 121 122 123 123 123 123 123 124 124 124 125 125 126 126 126 126 126 126 126 127 127 128 128 128 128 128
112 112 112 113 114 115 115 115 115 116 116 117 118 119 119 119 119 119 119 119 119 119 120 120 121 121 122 122 122 122 122 122 121 122 122 123 123 124 124 125 125 126 126 126 127 127 127 127 127 127 127 127
111 112 113 114 115 115 115 115 115 115 116 117 118 118 118 118 117 117 117 117 117 117 117 118 118 119 119 119 119 119 119 120 120 120 121 121 122 123 124 124 125 125 126 126 126 126 126 126 126 126 126 126
111 112 112 112 112 112 112 112 112 112 113 114 114 114 114 113 113 113 113 114 114 114 115 115 116 116 117 117 118 118 119 119 120 120 121 122 123 123 124 124 125 125 126 126 126 126 126 125 124 124 124 124
109 108 108 108 108 108 108 108 109 109 110 110 110 110 110 111 111 111 111 112 112 113 114 114 115 116 116 117 118 119 119 120 121 122 123 123 124 124 124 124 125 125 125 125 125 125 125 124 123 122 122 121
105 105 105 105 105 106 106 107 107 108 108 108 108 109 109 109 110 111 111 112 113 114 114 115 116 117 117 118 119 120 121 122 123 123 123 124 124 124 124 124 124 124 125 125 125 125 125 124 123 122 121 120
103 103 103 103 104 104 105 105 106 106 107 107 107 108 109 109 110 111 112 113 114 115 116 116 117 118 119 120 121 121 122 122 123 123 124 124 124 124 124 124 124 123 123 124 124 124 124 124 123 122 121 120
101 101 102 102 103 103 104 104 105 106 106 106 107 108 109 110 111 112 113 114 115 116 117 118 119 119 120 121 121 122 122 122 123 123 124 124 124 124 124 124 123 123 123 122 123 123 123 123 122 121 120 120
100 101 101 102 102 103 103 104 105 106 107 107 109 110 111 112 113 114 114 115 116 117 118 119 120 120 121 121 121 122 122 122 122 123 123 124 123 123 123 123 123 122 122 122 122 122 122 121 121 120 120 119
100 100 101 101 102 103 104 105 106 107 108 109 110 111 112 113 114 114 115 116 117 118 120 120 120 121 121 121 121 122 122 122 123 123 123 123 123 123 122 122 121 121 121 121 121 121 121 121 120 119 118 117
99 99 100 101 102 103 104 105 107 108 109 110 111 112 113 114 115 115 116 117 118 119 120 120 121 121 121 121 122 123 123 123 123 123 123 123 122 122 122 121 120 120 119 119 120 120 120 120 119 118 117 116
98 99 100 101 102 104 106 107 108 109 110 111 111 112 113 114 115 116 116 117 118 119 120 121 121 122 122 123 124 124 124 124 124 123 123 122 122 121 121 120 119 118 118 117 117 117 118 118 118 118 117 116
100 101 102 102 104 106 107 108 109 110 110 111 112 113 114 114 115 116 117 117 118 119 120 121 122 123 124 124 124 124 124 124 124 123 122 122 121 120 119 118 118 117 116 115 113 113 114 114 115 115 115 115
101 103 103 104 105 107 108 108 110 111 111 112 113 113 114 115 116 117 118 119 120 121 121 122 123 123 124 124 124 124 124 123 123 122 122 121 119 118 117 116 115 114 114 112 111 110 109 109 110 111 112 112
103 104 104 105 107 108 109 110 111 112 113 113 113 114 115 116 117 118 119 120 121 121 122 122 123 123 123 123 123 123 122 122 121 121 120 119 117 116 114 113 112 112 111 109 108 108 106 105 106 107 108 109
106 106 106 107 108 109 110 111 112 113 114 114 114 115 116 117 118 119 120 121 121 122 122 122 122 122 122 122 121 121 120 120 119 118 117 116 115 113 112 111 110 110 109 108 107 106 105 104 103 103 104 106
108 108 108 109 109 109 110 111 112 114 115 115 115 116 118 119 120 121 121 122 122 123 123 122 122 121 120 120 119 118 118 117 116 116 115 114 113 112 110 109 108 108 108 107 107 106 105 104 103 102 102 102
109 109 110 110 109 109 110 111 113 116 117 117 117 118 120 121 122 122 122 122 123 123 122 121 121 120 119 119 118 117 116 115 114 114 113 112 111 110 109 108 107 107 107 107 106 106 106 105 104 102 101 101
111 110 110 110 110 110 111 112 115 117 118 119 119 120 121 122 122 122 122 122 123 122 122 121 120 120 119 118 117 116 115 114 113 112 111 110 109 108 108 107 106 106 106 106 105 106 105 105 105 103 102 101
Wind_Direction
269 269 269 269 270 270 270 271 272 272 273 273 274 274 275 276 276 276 277 277 277 277 277 277 277 277 277 277 277 277 276 275 274 274 274 274 274 274 273 273 272 271 271 270 270 269 269 269 268 268 268 268
270 270 270 270 270 270 271 271 272 272 273 273 273 274 274 275 276 276 276 277 277 277 277 277 277 277 277 277 277 277 277 276 275 275 275 275 275 275 274 273 272 271 270 270 269 269 269 269 268 268 267 267
271 271 271 271 271 272 272 272 272 273 273 274 274 275 275 276 277 277 278 278 278 278 278 278 278 278 278 278 278 278 278 278 277 277 277 277 277 277 276 275 274 272 271 270 269 269 268 268 268 268 267 267
273 273 273 273 273 273 274 274 274 274 275 275 276 276 276 277 278 278 278 278 279 278 278 278 278 278 278 278 278 278 277 277 277 277 277 277 277 276 276 275 274 274 273 272 271 270 269 269 268 268 267 267
274 274 274 274 275 275 275 275 276 276 276 277 277 277 277 277 278 278 278 278 278 277 277 277 277 276 276 276 276 276 276 276 276 276 276 275 275 274 274 273 273 273 272 272 271 271 270 270 269 268 268 267
274 275 275 276 276 276 276 276 276 276 277 277 277 277 278 278 278 278 277 277 277 276 276 275 275 275 275 275 275 275 275 275 275 275 275 274 274 273 273 272 272 271 271 271 271 271 270 270 270 269 269 268
274 275 275 276 277 277 277 276 276 276 276 276 277 277 277 277 277 277 277 276 276 275 275 274 274 274 274 274 275 275 275 274 274 274 274 274 273 273 272 271 271 270 270 269 269 269 269 269 269 269 269 269
275 275 275 275 275 276 276 276 276 276 276 276 276 276 276 276 276 276 276 275 275 274 274 274 273 273 274 274 274 274 274 273 273 273 273 273 272 272 272 271 271 270 269 269 268 268 267 267 267 268 268 268
274 274 274 274 274 275 275 275 275 275 275 275 275 275 275 275 275 275 275 274 274 273 273 272 272 272 273 273 273 273 273 272 272 272 272 272 272 272 272 271 271 270 270 269 269 268 268 267 267 266 266 266
274 275 275 275 275 275 275 275 275 274 274 274 274 274 274 274 274 275 275 274 274 273 272 272 272 271 272 272 272 272 272 272 272 271 271 271 271 271 271 271 271 270 270 270 269 269 268 268 267 267 266 266
276 276 276 276 276 275 275 275 275 274 273 273 273 274 274 274 274 274 274 274 274 273 273 272 272 272 272 272 272 272 272 272 271 271 271 270 270 270 270 270 270 270 270 269 269 269 269 269 268 268 267 266
277 277 277 276 276 275 275 276 275 274 273 273 273 274 274 274 274 274 274 274 274 274 274 273 273 273 273 273 273 273 273 273 273 272 272 271 271 271 271 271 270 270 269 269 269 269 269 269 269 268 268 267
278 277 276 276 276 276 276 276 275 274 274 274 274 274 274 275 275 275 275 275 275 275 275 274 274 275 275 275 275 275 275 274 274 273 273 272 272 272 272 271 271 270 270 269 269 268 268 268 268 268 268 268
276 276 276 276 276 277 277 276 276 275 275 275 275 275 275 276 276 276 276 276 276 275 275 275 275 275 275 275 275 275 275 274 274 274 273 273 273 272 272 272 271 271 270 270 269 269 268 268 268 268 268 268
276 276 277 277 277 277 277 276 276 276 276 276 276 276 276 277 277 277 276 276 276 276 276 276 276 276 275 275 275 275 275 274 274 273 273 273 272 272 272 272 271 271 271 271 270 270 269 269 268 268 268 267
276 276 277 277 277 277 277 277 277 276 276 276 277 277 277 277 277 277 277 277 277 276 276 276 276 276 275 275 275 275 274 274 274 273 273 273 272 272 272 272 272 272 272 271 271 271 270 269 268 268 267 267
276 276 276 276 277 277 277 277 277 277 277 277 277 277 277 277 277 277 276 276 276 276 276 276 276 276 276 275 275 275 275 274 274 274 273 273 273 273 273 273 273 273 272 272 272 271 271 270 269 268 268 267
276 276 276 277 277 277 277 277 277 277 277 277 277 277 277 277 276 276 276 276 276 276 276 276 276 276 276 275 275 275 275 275 274 274 274 274 274 274 273 273 273 272 272 272 272 272 271 271 270 269 268 267
277 277 277 277 277 277 277 277 277 277 277 277 277 277 277 277 277 277 277 277 276 276 276 276 276 276 275 275 275 275 275 275 275 275 275 275 274 274 274 274 273 273 272 272 272 272 271 271 270 269 269 268
277 277 277 277 277 277 278 278 278 278 278 278 277 277 277 277 277 277 277 277 277 277 276 276 276 276 276 276 276 276 276 276 276 276 276 275 275 275 275 275 274 274 273 273 272 272 271 271 270 269 269 268
277 277 277 277 278 278 278 278 278 278 278 278 278 278 278 278 278 278 278 278 278 277 277 277 277 277 277 277 277 277 277 277 276 276 276 276 276 276 276 275 275 275 275 274 273 273 272 271 270 270 269 268
277 277 278 278 278 278 278 278 278 278 278 278 278 278 278 278 278 278 278 278 278 278 278 278 278 278 278 278 278 278 278 278 278 277 277 277 277 277 276 276 276 275 275 275 274 274 273 272 271 270 269 268
277 278 278 278 278 278 278 278 278 278 278 278 278 279 279 279 279 279 279 279 279 279 279 280 280 280 280 280 280 280 279 279 279 279 278 278 278 278 277 277 276 276 275 275 274 274 273 273 272 271 270 269
278 278 278 278 278 278 278 278 279 279 279 279 279 279 279 279 279 280 280 280 280 280 281 281 281 281 281 281 281 281 281 281 280 280 280 279 279 278 278 277 276 276 275 274 274 273 273 273 272 271 270 269
279 279 279 279 279 279 279 280 280 280 280 280 280 280 280 281 281 281 281 281 281 281 282 282 282 282 282 282 282 282 282 282 281 281 281 280 280 279 278 278 277 276 275 274 273 272 272 272 271 271 270 269
280 280 280 280 281 281 281 281 281 281 282 282 282 282 282 282 282 282 282 282 282 282 282 282 282 283 283 283 283 283 283 283 282 282 281 281 280 280 279 278 278 277 276 275 273 272 271 271 271 270 269 269
281 281 281 282 282 282 282 282 283 283 283 282 282 283 283 283 283 283 283 283 283 283 283 283 283 283 283 283 283 283 283 283 283 282 282 282 281 281 280 279 278 277 276 275 274 273 272 271 270 270 270 269
282 282 283 283 283 283 283 284 284 284 283 283 283 284 284 284 284 284 284 284 284 284 283 283 283 283 283 283 283 283 283 283 283 283 282 282 282 281 281 280 279 278 277 276 275 274 273 271 270 270 269 269
283 283 284 284 284 284 284 284 285 284 284 284 285 285 285 285 284 284 284 284 284 284 284 284 284 284 284 284 283 283 283 283 283 283 282 282 282 281 281 280 279 278 278 277 276 275 273 272 271 269 268 268
284 284 284 284 285 285 285 285 285 285 285 285 285 285 285 285 285 285 285 285 284 284 285 285 285 285 285 285 284 284 284 284 283 283 282 282 282 281 280 280 279 278 277 277 276 275 274 273 271 270 268 267
284 285 285 285 285 285 285 285 285 285 285 285 285 285 285 285 285 285 285 285 285 286 286 286 286 286 286 286 286 285 285 284 283 283 283 282 281 281 280 280 279 278 277 277 276 275 274 273 272 270 269 267